PDT,Max TemperatureF,Mean TemperatureF,Min TemperatureF,Max Dew PointF,MeanDew PointF,Min DewpointF,Max Humidity, Mean Humidity, Min Humidity, Max Sea Level PressureIn, Mean Sea Level PressureIn, Min Sea Level PressureIn, Max VisibilityMiles, Mean VisibilityMiles, Min VisibilityMiles, Max Wind SpeedMPH, Mean Wind SpeedMPH, Max Gust SpeedMPH,PrecipitationIn, CloudCover, Events, WindDirDegrees
2013-6-1,74,60,46,53,49,44,93,70,47,30.24,30.14,30.02,10,10,10,13,2,17,T,4,,1
2013-6-2,72,62,53,51,48,46,83,64,44,30.09,30.06,30.03,10,10,10,14,8,28,0.00,3,,346
2013-6-3,75,60,47,54,48,44,86,64,41,30.13,30.08,30.03,10,10,10,15,6,21,0.00,2,,3
2013-6-4,84,66,47,52,48,42,77,54,31,30.09,30.03,29.96,10,10,10,14,8,17,0.00,0,,352
2013-6-5,81,68,55,57,52,45,72,56,39,30.07,30.02,29.97,10,10,10,16,8,21,0.00,0,,356
2013-6-6,82,68,56,58,51,41,77,56,35,30.05,30.01,29.98,10,10,10,18,8,23,0.00,0,,358
2013-6-7,75,60,47,55,48,42,86,64,41,30.16,30.11,30.06,10,10,10,16,5,22,0.00,3,,358
2013-6-8,77,64,49,52,47,44,83,60,36,30.19,30.13,30.06,10,10,10,15,7,22,0.00,0,,12
2013-6-9,73,60,46,50,46,42,86,62,38,30.11,30.07,30.00,10,10,10,15,6,22,0.00,2,,344
2013-6-10,70,58,47,47,43,41,80,61,42,30.04,29.97,29.92,10,10,10,14,7,22,0.00,5,,335
2013-6-11,65,56,47,52,45,42,86,69,51,30.15,30.08,29.99,10,10,8,12,4,17,0.05,7,Rain,309
2013-6-12,62,56,50,54,49,45,96,78,60,30.18,30.16,30.14,10,8,2,12,2,15,0.22,8,Rain,2
2013-6-13,62,55,46,53,50,45,96,82,67,30.29,30.20,30.17,10,9,1,9,2,15,0.38,7,Rain,183
2013-6-14,67,56,45,50,48,44,93,73,52,30.29,30.18,30.00,10,10,10,13,3,16,0.00,5,,330
2013-6-15,80,62,45,56,51,44,100,70,39,30.00,29.94,29.89,10,10,10,13,5,16,0.00,0,,1
2013-6-16,71,60,51,56,53,48,89,75,61,30.09,30.07,30.01,10,10,7,10,3,14,0.06,5,Rain,21
2013-6-17,78,66,57,54,52,47,86,62,38,30.09,30.03,29.93,10,10,10,13,4,17,T,6,,144
2013-6-18,71,58,48,51,48,45,93,69,45,30.00,29.97,29.94,10,10,10,18,5,25,T,5,,215
2013-6-19,66,58,50,55,50,48,89,75,60,30.08,30.00,29.96,10,10,7,10,1,14,0.08,8,Rain,310
2013-6-20,67,58,50,54,50,45,89,69,48,30.14,30.07,30.04,10,9,2,15,4,18,0.14,6,Rain,60
2013-6-21,68,60,53,54,51,47,86,71,56,30.17,30.15,30.13,10,10,10,9,2,14,T,7,,335
2013-6-22,79,62,47,55,51,45,93,64,35,30.12,30.00,29.84,10,10,3,8,2,12,0.00,2,,155
2013-6-23,69,64,59,61,58,55,93,85,76,29.83,29.71,29.64,10,9,2,8,1,10,0.29,8,Rain,135
2013-6-24,67,62,56,61,55,50,93,76,58,29.71,29.67,29.61,10,10,4,14,4,18,0.09,7,Rain,173
2013-6-25,69,62,56,59,55,51,93,76,59,29.86,29.75,29.68,10,10,2,15,5,20,0.10,6,Rain,168
2013-6-26,72,64,58,60,57,54,93,73,53,30.05,29.95,29.86,10,9,2,10,3,15,0.16,7,Rain,155
2013-6-27,80,70,60,63,59,58,90,71,52,30.16,30.10,30.02,10,10,10,10,3,15,T,6,Rain,48
2013-6-28,90,72,57,67,61,57,100,72,43,30.15,30.08,30.01,10,10,10,14,4,18,0.00,1,,34
2013-6-29,87,74,61,62,59,54,84,63,42,30.10,30.04,29.96,10,10,10,10,3,13,0.00,0,,37
2013-6-30,94,76,59,70,62,57,97,69,41,29.98,29.90,29.81,10,10,10,15,4,18,0.00,1,,26